Location: Milton Keynes
(52.0316°N, 0.7531°W)
Time: 22:52:36
(UTC+00:00)

N. Korean satellite - Pass Details

Date: 30 September 2020
Orbit: 452 x 505 km, 97.2° (Epoch: 29 October)

Event Time Altitude Azimuth Distance (km) Brightness Sun altitude
Rises 05:40:08 0° 27° (NNE) 2,588 10.9 -13.5°
Reaches altitude 10° 05:42:51 10° 49° (NE) 1,689 10.3 -13.1°
Maximum altitude 05:45:14 17° 90° (E) 1,318 9.9 -12.7°
Drops below altitude 10° 05:47:35 10° 131° (SE) 1,658 9.8 -12.3°
Sets 05:50:12 0° 153° (SSE) 2,518 10.4 -12.0°
